Location: Juzet
(42.9779°N, 0.7597°E)
Time: 02:24:04
(UTC+00:00)

Okean 2 Rocket - Pass Details

Date: 14 July 2020
Orbit: 617 x 641 km, 82.5° (Epoch: 04 August)

Event Time Altitude Azimuth Distance (km) Brightness Sun altitude
Rises 03:47:50 0° 179° (S) 2,876 6.1 -7.3°
Reaches altitude 10° 03:50:03 10° 176° (S) 1,975 5.3 -7.0°
Maximum altitude 03:54:23 64° 95° (E) 687 3.6 -6.4°
Drops below altitude 10° 03:58:44 10° 14° (NNE) 1,993 6.5 -5.7°
Sets 04:00:59 0° 12° (NNE) 2,906 7.3 -5.4°
